Language: 


Des rapports , des résumés tant et plus, au choix de chacun....


Données statistiques de la station
Quotidien Rapport Aout 4, 2017 Unités:  Anglais    Métrique   les deux
« Précédent Jour
Suivant Jour »
Quotidien Hebdomadaire Mensuel Annuel Actuel
  Haut: Bas: Moyen:
Température: 75.9 °F 59.9 °F 66.2 °F
Pt de rosée: 64.4 °F 50 °F 57.2 °F
Humidité: 97 % 43 % 74 %
Vitesse du vent: 23 mph 0 mph 7.9 mph
Rafales: 23.9 mph - -
Vent:- - WSW
Pression: 30 in 29.8 in -
Précipitation: 0.09 in    
Historical Graphs
 
 
Données statistiques pour Aout 4, 2017
Heure Température Point de rosée Pression Vent Vitesse du vent Refales Humidité Pluie (taux horaire)
00:03 65.1 °F 55.4 °F 29.9 in WSW 6.3 mph 13.2 mph 71 % 0 in
00:08 65.1 °F 55.4 °F 29.9 in WSW 7.6 mph 13.2 mph 71 % 0 in
00:13 65.1 °F 55.4 °F 29.9 in WSW 10.1 mph 10.7 mph 71 % 0 in
00:18 65.1 °F 55.4 °F 29.9 in SSW 8.5 mph 12.8 mph 71 % 0 in
00:23 64.9 °F 55.4 °F 29.9 in WSW 8.5 mph 12.8 mph 71 % 0 in
00:28 64.9 °F 55.4 °F 29.9 in West 5.8 mph 12.5 mph 71 % 0 in
00:33 64.8 °F 55.4 °F 29.9 in WSW 5.6 mph 11.2 mph 71 % 0 in
00:38 64.2 °F 55.4 °F 29.9 in WSW 7.4 mph 9.8 mph 71 % 0 in
00:43 63.9 °F 55.4 °F 29.9 in WSW 6.3 mph 9.6 mph 72 % 0 in
00:48 63.3 °F 55.4 °F 29.9 in WSW 5.8 mph 9.6 mph 72 % 0 in
00:53 63 °F 55.4 °F 29.9 in WSW 7.4 mph 8.1 mph 73 % 0 in
00:59 62.8 °F 55.4 °F 29.9 in WSW 4.3 mph 8.1 mph 74 % 0 in
01:04 62.6 °F 55.4 °F 29.9 in West 4.3 mph 8.1 mph 74 % 0 in
01:09 62.2 °F 55.4 °F 29.9 in SW 3.8 mph 8.1 mph 76 % 0 in
01:14 62.1 °F 55.4 °F 29.9 in WSW 2 mph 7.4 mph 76 % 0 in
01:19 61.5 °F 53.6 °F 29.9 in Calm   6.5 mph 76 % 0 in
01:24 61.3 °F 55.4 °F 29.9 in WSW 0.9 mph 4.9 mph 78 % 0 in
01:29 61.2 °F 55.4 °F 29.9 in WSW 4.7 mph 4.9 mph 78 % 0 in
01:34 61.2 °F 55.4 °F 29.9 in WSW 5.4 mph 6.5 mph 80 % 0 in
01:39 61.2 °F 55.4 °F 29.9 in SW 4.9 mph 6.5 mph 80 % 0 in
01:44 61.2 °F 55.4 °F 29.9 in WSW 4.7 mph 6.5 mph 81 % 0 in
01:49 61.2 °F 55.4 °F 29.9 in Calm   7.4 mph 81 % 0 in
01:54 61 °F 55.4 °F 29.9 in SSW 4 mph 7.4 mph 81 % 0 in
01:59 61 °F 55.4 °F 29.8 in WSW 2.2 mph 5.8 mph 81 % 0 in
02:04 61 °F 55.4 °F 29.8 in Calm   5.8 mph 81 % 0 in
02:10 60.8 °F 55.4 °F 29.8 in South 3.6 mph 6.3 mph 82 % 0 in
02:15 60.8 °F 55.4 °F 29.9 in Calm   6.3 mph 82 % 0 in
02:20 60.8 °F 55.4 °F 29.9 in SW 5.6 mph 7.4 mph 82 % 0 in
02:25 60.8 °F 55.4 °F 29.9 in WSW 3.1 mph 7.4 mph 83 % 0 in
02:30 60.8 °F 55.4 °F 29.9 in SW 5.6 mph 6.5 mph 83 % 0 in
02:35 60.6 °F 55.4 °F 29.9 in WSW 6 mph 6.3 mph 83 % 0 in
02:40 60.6 °F 55.4 °F 29.9 in WSW 3.6 mph 7.8 mph 84 % 0 in
02:45 60.4 °F 55.4 °F 29.8 in WSW 3.8 mph 7.8 mph 84 % 0 in
02:50 60.4 °F 55.4 °F 29.8 in WSW 6 mph 6.5 mph 85 % 0 in
02:55 60.4 °F 55.4 °F 29.8 in Calm   6.5 mph 86 % 0 in
03:00 60.1 °F 55.4 °F 29.8 in WSW 2.5 mph 5.8 mph 86 % 0 in
03:05 59.9 °F 55.4 °F 29.8 in SSW 3.6 mph 5.6 mph 86 % 0 in
03:10 60.1 °F 57.2 °F 29.8 in WSW 5.8 mph 6 mph 88 % 0 in
03:16 60.4 °F 57.2 °F 29.8 in SSW 6.3 mph 6.3 mph 89 % 0 in
03:21 60.6 °F 57.2 °F 29.8 in South 2.9 mph 7.6 mph 89 % 0 in
03:26 60.6 °F 57.2 °F 29.9 in WSW 4.3 mph 7.6 mph 90 % 0 in
03:31 60.6 °F 57.2 °F 29.9 in SW 6 mph 7.6 mph 90 % 0 in
03:36 60.6 °F 57.2 °F 29.9 in SSW 1.3 mph 7.6 mph 90 % 0 in
03:41 60.6 °F 57.2 °F 29.8 in South 3.4 mph 6.5 mph 90 % 0 in
03:46 60.8 °F 57.2 °F 29.8 in SSW 3.1 mph 6.5 mph 90 % 0 in
03:51 61 °F 57.2 °F 29.8 in SW 1.3 mph 6 mph 90 % 0 in
03:56 61.3 °F 59 °F 29.9 in WSW 4 mph 7.8 mph 91 % 0 in
04:01 61.3 °F 59 °F 29.9 in SW 6.3 mph 7.8 mph 91 % 0 in
04:06 61.5 °F 59 °F 29.9 in WSW 4 mph 7.2 mph 91 % 0 in
04:11 61.7 °F 59 °F 29.9 in SW 2.9 mph 7.8 mph 91 % 0 in
04:16 61.9 °F 59 °F 29.9 in SW 1.1 mph 8.5 mph 90 % 0 in
04:21 61.9 °F 59 °F 29.9 in SSW 3.6 mph 8.5 mph 90 % 0 in
04:26 61.9 °F 59 °F 29.9 in SSW 5.6 mph 7.6 mph 90 % 0 in
04:31 61.7 °F 59 °F 29.9 in WSW 4 mph 7.4 mph 90 % 0 in
04:36 61.5 °F 59 °F 29.9 in SSW 5.6 mph 7.4 mph 89 % 0 in
04:41 61.3 °F 59 °F 29.9 in WSW 5.4 mph 7.4 mph 90 % 0 in
04:46 61.3 °F 59 °F 29.9 in SSW 5.6 mph 7.6 mph 90 % 0 in
04:51 61.3 °F 59 °F 29.9 in WSW 4.9 mph 8.7 mph 90 % 0 in
04:56 61.5 °F 59 °F 29.9 in SW 6.3 mph 8.7 mph 91 % 0 in
05:01 61.3 °F 59 °F 29.9 in WSW 2.7 mph 7.6 mph 90 % 0 in
05:06 61.3 °F 59 °F 29.9 in SW 4.7 mph 7.6 mph 90 % 0 in
05:12 61.3 °F 59 °F 29.9 in South 5.8 mph 7.6 mph 91 % 0 in
05:17 61.2 °F 59 °F 29.9 in SW 1.6 mph 7.4 mph 91 % 0 in
05:20 61.2 °F 59 °F 29.9 in SSW 6 mph 6.5 mph 91 % 0 in
05:25 61 °F 59 °F 29.9 in SW 3.6 mph 6.5 mph 91 % 0 in
05:26 61 °F 59 °F 29.9 in WSW 3.1 mph 6.5 mph 91 % 0 in
05:27 61 °F 59 °F 29.9 in SW 3.6 mph 6.5 mph 91 % 0 in
05:32 61 °F 59 °F 29.9 in SW 3.8 mph 4.7 mph 91 % 0 in
05:37 61.2 °F 59 °F 29.9 in WSW 5.4 mph 5.6 mph 91 % 0 in
05:42 61.3 °F 59 °F 29.9 in SW 6.3 mph 6.3 mph 92 % 0 in
05:47 61.3 °F 59 °F 29.9 in SW 3.1 mph 6.5 mph 92 % 0 in
05:52 61.5 °F 59 °F 29.9 in SW 2.5 mph 6.5 mph 92 % 0 in
05:58 61.5 °F 59 °F 29.9 in South 8.1 mph 8.1 mph 92 % 0 in
06:03 61.5 °F 59 °F 29.9 in SW 3.4 mph 8.1 mph 91 % 0 in
06:08 61.7 °F 59 °F 29.9 in SSW 6.3 mph 8.1 mph 91 % 0 in
06:13 61.7 °F 59 °F 29.9 in SSW 2 mph 8.5 mph 91 % 0 in
06:18 61.7 °F 59 °F 29.9 in SSW 4.9 mph 8.5 mph 91 % 0 in
06:23 61.7 °F 59 °F 29.9 in SSW 4.9 mph 9.4 mph 91 % 0 in
06:28 61.9 °F 59 °F 29.9 in WSW 7.4 mph 9.4 mph 91 % 0 in
06:33 61.9 °F 59 °F 29.9 in SW 7.6 mph 7.8 mph 91 % 0 in
06:38 61.9 °F 59 °F 29.9 in SSW 8.5 mph 8.5 mph 91 % 0 in
06:43 62.1 °F 59 °F 29.9 in SSW 6.3 mph 10.7 mph 91 % 0 in
06:48 62.2 °F 59 °F 29.9 in WSW 5.8 mph 10.7 mph 91 % 0 in
06:53 62.2 °F 59 °F 29.9 in WSW 6.5 mph 11 mph 91 % 0 in
06:58 62.4 °F 60.8 °F 29.9 in SSW 8.5 mph 11 mph 91 % 0 in
07:03 62.6 °F 59 °F 29.9 in SSW 5.6 mph 9.8 mph 90 % 0 in
07:08 62.8 °F 59 °F 29.9 in SW 6.3 mph 8.1 mph 90 % 0 in
07:13 62.8 °F 59 °F 29.9 in SSW 7.2 mph 8.1 mph 90 % 0 in
07:18 62.8 °F 59 °F 29.9 in WSW 9.6 mph 9.6 mph 90 % 0 in
07:23 62.8 °F 59 °F 29.9 in WSW 6.9 mph 9.8 mph 90 % 0 in
07:28 62.8 °F 60.8 °F 29.8 in SSW 7.6 mph 9.8 mph 91 % 0 in
07:33 62.6 °F 60.8 °F 29.8 in SSW 9.8 mph 10.1 mph 91 % 0 in
07:39 62.4 °F 60.8 °F 29.8 in SW 6.7 mph 11.2 mph 93 % 0 in
07:44 62.2 °F 60.8 °F 29.9 in WSW 7.8 mph 11.2 mph 94 % 0 in
07:49 61.9 °F 60.8 °F 29.9 in SSW 7.8 mph 11 mph 95 % 0 in
07:54 61.7 °F 60.8 °F 29.9 in SW 5.4 mph 10.1 mph 95 % 0.01 in
07:59 61.7 °F 60.8 °F 29.9 in WSW 5.8 mph 8.7 mph 95 % 0.01 in
08:04 61.5 °F 60.8 °F 29.9 in WSW 4.9 mph 8.1 mph 96 % 0.02 in
08:09 61.3 °F 60.8 °F 29.9 in West 5.8 mph 7.6 mph 96 % 0.03 in
08:14 61.3 °F 60.8 °F 29.9 in SW 4.9 mph 13.2 mph 96 % 0.06 in
08:19 61.3 °F 60.8 °F 29.9 in SSW 6.3 mph 13.2 mph 96 % 0.07 in
08:24 61.3 °F 60.8 °F 29.9 in WSW 6 mph 10.3 mph 96 % 0.08 in
08:29 61.7 °F 60.8 °F 29.9 in SW 3.4 mph 10.3 mph 96 % 0.08 in
08:32 61.7 °F 60.8 °F 29.9 in SW 5.4 mph 7.8 mph 96 % 0.08 in
08:37 61.9 °F 60.8 °F 29.9 in SSW 5.8 mph 6 mph 97 % 0.08 in
08:42 62.1 °F 60.8 °F 29.9 in WNW 7.4 mph 8.9 mph 97 % 0.08 in
08:47 62.1 °F 60.8 °F 29.9 in WSW 9.4 mph 9.4 mph 96 % 0.08 in
08:52 62.1 °F 60.8 °F 29.9 in West 14.8 mph 14.8 mph 96 % 0.07 in
08:57 62.2 °F 60.8 °F 29.9 in West 13.4 mph 14.8 mph 96 % 0.07 in
09:02 62.1 °F 60.8 °F 29.9 in SW 9.8 mph 13.4 mph 96 % 0.05 in
09:07 62.1 °F 60.8 °F 29.9 in SW 4.3 mph 10.5 mph 95 % 0.05 in
09:12 62.1 °F 60.8 °F 29.9 in WSW 4 mph 9.8 mph 95 % 0.02 in
09:17 62.1 °F 60.8 °F 29.9 in SSW 7.4 mph 10.5 mph 95 % 0.01 in
09:22 62.2 °F 60.8 °F 29.9 in SSW 6.5 mph 10.5 mph 94 % 0.01 in
09:27 62.4 °F 60.8 °F 29.9 in WSW 5.8 mph 9.4 mph 94 % 0 in
09:32 62.8 °F 60.8 °F 29.9 in SW 7.8 mph 10.1 mph 93 % 0 in
09:37 63.1 °F 60.8 °F 29.9 in SSW 5.4 mph 10.1 mph 93 % 0 in
09:43 63.3 °F 60.8 °F 29.9 in WSW 6.5 mph 8.1 mph 93 % 0 in
09:48 63.3 °F 60.8 °F 29.9 in SW 6.7 mph 7.2 mph 92 % 0 in
09:53 63.5 °F 60.8 °F 29.9 in SW 6 mph 8.5 mph 92 % 0 in
09:58 64 °F 60.8 °F 29.9 in SW 7.4 mph 8.5 mph 92 % 0 in
10:03 64.4 °F 62.6 °F 29.9 in WSW 5.4 mph 8.5 mph 91 % 0 in
10:08 64.4 °F 60.8 °F 29.9 in SW 5.4 mph 8.7 mph 90 % 0 in
10:13 64.6 °F 60.8 °F 29.9 in SW 3.1 mph 10.7 mph 89 % 0 in
10:18 65.1 °F 62.6 °F 29.9 in SW 7.6 mph 10.7 mph 89 % 0 in
10:23 65.7 °F 62.6 °F 29.9 in SW 11 mph 11 mph 88 % 0 in
10:28 65.8 °F 60.8 °F 29.9 in SSW 5.6 mph 11 mph 86 % 0 in
10:33 65.8 °F 60.8 °F 29.9 in West 5.8 mph 11.2 mph 86 % 0 in
10:38 66 °F 62.6 °F 29.9 in WSW 8.7 mph 11.2 mph 86 % 0 in
10:43 66.2 °F 62.6 °F 29.9 in WSW 10.7 mph 11 mph 86 % 0 in
10:48 66.4 °F 62.6 °F 29.9 in WSW 10.3 mph 13 mph 86 % 0 in
10:53 66.7 °F 62.6 °F 29.9 in WSW 8.1 mph 13 mph 85 % 0 in
10:58 66.9 °F 60.8 °F 29.9 in WSW 15.2 mph 15.2 mph 83 % 0 in
11:03 66.9 °F 62.6 °F 29.9 in WSW 7.6 mph 15.2 mph 84 % 0 in
11:08 67.3 °F 62.6 °F 29.9 in SSW 7.8 mph 15.2 mph 85 % 0 in
11:13 67.5 °F 62.6 °F 29.9 in West 9.6 mph 10.7 mph 83 % 0 in
11:18 67.3 °F 62.6 °F 29.9 in WSW 9.6 mph 13.2 mph 82 % 0 in
11:23 66.9 °F 60.8 °F 29.9 in WSW 14.5 mph 14.5 mph 82 % 0 in
11:28 66.6 °F 60.8 °F 29.9 in SSW 10.3 mph 14.5 mph 82 % 0 in
11:33 66.9 °F 60.8 °F 29.9 in West 10.7 mph 14.5 mph 82 % 0 in
11:38 67.3 °F 60.8 °F 29.9 in West 9.8 mph 14.8 mph 81 % 0 in
11:43 67.5 °F 60.8 °F 29.9 in WSW 12.1 mph 15.4 mph 79 % 0 in
11:48 67.3 °F 60.8 °F 29.9 in WSW 7.8 mph 15.4 mph 79 % 0 in
11:53 68 °F 62.6 °F 29.9 in West 5.8 mph 13.2 mph 80 % 0 in
11:58 69.4 °F 62.6 °F 29.9 in WSW 13 mph 14.5 mph 79 % 0 in
12:03 69.1 °F 60.8 °F 29.9 in WSW 11.2 mph 19 mph 76 % 0 in
12:08 68 °F 59 °F 29.9 in WSW 8.7 mph 19 mph 74 % 0 in
12:14 67.3 °F 59 °F 29.9 in WSW 11.4 mph 16.1 mph 76 % 0 in
12:19 67.6 °F 60.8 °F 29.9 in West 8.9 mph 16.1 mph 79 % 0 in
12:24 68 °F 60.8 °F 29.9 in WSW 6.3 mph 14.5 mph 79 % 0 in
12:29 69.6 °F 62.6 °F 29.9 in SW 11 mph 14.5 mph 78 % 0 in
12:30 70 °F 62.6 °F 29.9 in SW 8.9 mph 14.5 mph 78 % 0 in
12:35 71.1 °F 64.4 °F 29.9 in WSW 8.5 mph 13 mph 78 % 0 in
12:40 71.6 °F 62.6 °F 29.9 in West 7.8 mph 15.2 mph 74 % 0 in
12:45 71.1 °F 60.8 °F 29.9 in WSW 12.8 mph 22.4 mph 71 % 0 in
12:50 70 °F 59 °F 29.9 in West 9.8 mph 22.4 mph 69 % 0 in
12:55 70.2 °F 60.8 °F 29.9 in WSW 12.8 mph 21.3 mph 70 % 0 in
13:00 71.1 °F 60.8 °F 29.9 in West 11 mph 21.3 mph 70 % 0 in
13:05 72.1 °F 60.8 °F 29.9 in WSW 14.3 mph 17.9 mph 68 % 0 in
13:10 70.7 °F 57.2 °F 29.9 in West 20.6 mph 22.8 mph 61 % 0 in
13:15 70.2 °F 57.2 °F 29.9 in West 13.2 mph 22.8 mph 62 % 0.01 in
13:21 70.9 °F 57.2 °F 29.9 in West 14.5 mph 23.9 mph 60 % 0.01 in
13:26 72.1 °F 55.4 °F 29.9 in West 8.7 mph 23.9 mph 55 % 0.01 in
13:31 73 °F 55.4 °F 29.9 in West 12.8 mph 21 mph 55 % 0.01 in
13:36 73.4 °F 55.4 °F 29.9 in WSW 19.9 mph 21 mph 53 % 0.01 in
13:41 74.1 °F 55.4 °F 29.9 in SW 13 mph 19.9 mph 52 % 0.01 in
13:46 72.9 °F 55.4 °F 29.9 in West 23 mph 23 mph 52 % 0.01 in
13:51 72.9 °F 53.6 °F 29.9 in West 19.2 mph 23 mph 50 % 0.01 in
13:56 74.1 °F 55.4 °F 29.9 in West 13 mph 20.8 mph 53 % 0.01 in
14:01 74.1 °F 55.4 °F 29.9 in WSW 13.2 mph 19.2 mph 52 % 0.01 in
14:06 72.7 °F 53.6 °F 29.9 in West 19 mph 20.1 mph 51 % 0.01 in
14:11 73.2 °F 55.4 °F 29.9 in WSW 11 mph 21.9 mph 52 % 0 in
14:16 73 °F 55.4 °F 29.9 in WSW 9.8 mph 21.9 mph 53 % 0 in
14:21 72.3 °F 53.6 °F 29.9 in West 13 mph 17.9 mph 51 % 0 in
14:26 72.3 °F 55.4 °F 29.9 in WSW 10.7 mph 17.9 mph 53 % 0 in
14:31 72.3 °F 55.4 °F 29.9 in WSW 11 mph 19.9 mph 54 % 0 in
14:36 73.4 °F 55.4 °F 29.9 in WSW 13.2 mph 19.9 mph 52 % 0 in
14:41 72.9 °F 55.4 °F 29.9 in West 11 mph 17 mph 52 % 0 in
14:46 73 °F 55.4 °F 29.9 in West 10.1 mph 17.4 mph 53 % 0 in
14:51 73 °F 55.4 °F 29.9 in West 10.3 mph 23.3 mph 52 % 0 in
14:56 73.6 °F 55.4 °F 29.9 in WSW 15.2 mph 23.3 mph 51 % 0 in
15:01 74.3 °F 55.4 °F 29.9 in WSW 10.3 mph 20.1 mph 50 % 0 in
15:06 74.5 °F 55.4 °F 29.9 in West 13 mph 20.1 mph 50 % 0 in
15:11 74.7 °F 55.4 °F 29.9 in WSW 10.5 mph 18.6 mph 50 % 0 in
15:16 74.5 °F 53.6 °F 29.9 in West 12.3 mph 20.1 mph 48 % 0 in
15:19 74.8 °F 55.4 °F 29.9 in West 14.5 mph 20.1 mph 49 % 0 in
15:24 74.5 °F 53.6 °F 29.9 in West 12.5 mph 22.4 mph 48 % 0 in
15:29 75.9 °F 55.4 °F 29.9 in WSW 10.5 mph 22.4 mph 50 % 0 in
15:34 74.8 °F 55.4 °F 29.9 in WSW 14.8 mph 17.7 mph 49 % 0 in
15:39 73.4 °F 53.6 °F 29.9 in WSW 15.9 mph 20.4 mph 49 % 0 in
15:44 72.9 °F 55.4 °F 29.9 in WSW 6.5 mph 20.4 mph 52 % 0 in
15:49 72.9 °F 55.4 °F 29.9 in West 11 mph 19.5 mph 52 % 0 in
15:55 72.9 °F 55.4 °F 29.9 in West 15.4 mph 17.7 mph 54 % 0 in
16:00 73.6 °F 55.4 °F 29.9 in WSW 7.2 mph 19.7 mph 54 % 0 in
16:05 73 °F 55.4 °F 29.9 in West 11 mph 19.7 mph 54 % 0 in
16:10 74.5 °F 57.2 °F 29.9 in West 10.5 mph 19 mph 53 % 0 in
16:15 73 °F 53.6 °F 29.9 in WSW 13.9 mph 22.1 mph 51 % 0 in
16:20 74.3 °F 55.4 °F 29.9 in WSW 15.2 mph 22.1 mph 52 % 0 in
16:25 72.7 °F 55.4 °F 29.9 in West 10.3 mph 19.9 mph 52 % 0 in
16:30 73.8 °F 57.2 °F 29.9 in WSW 13.9 mph 23.5 mph 54 % 0 in
16:35 74.7 °F 57.2 °F 29.9 in WSW 14.5 mph 23.5 mph 53 % 0 in
16:40 73.4 °F 55.4 °F 29.9 in WSW 11.4 mph 17.7 mph 53 % 0 in
16:45 74.1 °F 55.4 °F 29.9 in West 9.8 mph 23.3 mph 52 % 0 in
16:50 74.7 °F 57.2 °F 29.9 in WSW 13.2 mph 23.3 mph 53 % 0 in
16:55 73.4 °F 55.4 °F 29.9 in WSW 17.4 mph 19.2 mph 51 % 0 in
17:00 73.2 °F 55.4 °F 29.9 in WSW 14.8 mph 19.2 mph 53 % 0 in
17:05 72.9 °F 55.4 °F 29.9 in SW 13.4 mph 17.4 mph 54 % 0 in
17:10 72.3 °F 55.4 °F 29.9 in West 17.7 mph 17.7 mph 54 % 0 in
17:15 72.1 °F 55.4 °F 29.9 in SW 14.5 mph 23.9 mph 54 % 0 in
17:20 72 °F 55.4 °F 29.9 in West 14.5 mph 23.9 mph 54 % 0 in
17:25 72.7 °F 55.4 °F 29.9 in WSW 9.8 mph 15.7 mph 54 % 0 in
17:35 73 °F 55.4 °F 29.9 in WSW 15.9 mph 17.7 mph 53 % 0 in
17:40 72.7 °F 55.4 °F 29.9 in West 8.5 mph 15.9 mph 53 % 0 in
17:45 73.4 °F 53.6 °F 29.9 in West 10.5 mph 17.7 mph 50 % 0 in
17:50 73.9 °F 51.8 °F 29.9 in West 20.1 mph 20.1 mph 46 % 0 in
17:55 74.1 °F 51.8 °F 29.9 in WSW 16.3 mph 22.6 mph 44 % 0 in
18:00 74.1 °F 50 °F 29.9 in West 17.4 mph 22.6 mph 43 % 0 in
18:05 74.7 °F 51.8 °F 29.9 in West 8.7 mph 18.1 mph 44 % 0 in
18:10 74.7 °F 50 °F 29.9 in West 14.5 mph 18.6 mph 43 % 0 in
18:15 74.7 °F 51.8 °F 29.9 in West 12.8 mph 18.6 mph 44 % 0 in
18:21 74.5 °F 50 °F 29.9 in West 13 mph 20.1 mph 43 % 0 in
18:26 73.9 °F 51.8 °F 29.9 in WSW 13.4 mph 20.1 mph 45 % 0 in
18:31 74.1 °F 51.8 °F 29.9 in WSW 4.9 mph 19.7 mph 45 % 0 in
18:36 73.2 °F 51.8 °F 29.9 in WSW 17.2 mph 17.2 mph 46 % 0 in
18:41 73.4 °F 51.8 °F 29.9 in WSW 17.2 mph 19.2 mph 47 % 0 in
18:46 72.5 °F 51.8 °F 29.9 in West 12.8 mph 20.1 mph 46 % 0 in
18:51 73.2 °F 53.6 °F 29.9 in West 8.7 mph 20.1 mph 48 % 0 in
18:56 73.8 °F 53.6 °F 29.9 in WSW 12.5 mph 14.8 mph 48 % 0 in
19:01 72.1 °F 53.6 °F 29.9 in WSW 5.8 mph 14.1 mph 50 % 0 in
19:06 72 °F 53.6 °F 29.9 in West 10.7 mph 16.8 mph 50 % 0 in
19:11 71.2 °F 51.8 °F 29.9 in West 9.8 mph 22.8 mph 50 % 0 in
19:16 70.9 °F 53.6 °F 29.9 in West 7.4 mph 22.8 mph 52 % 0 in
19:21 70.9 °F 53.6 °F 29.9 in West 13 mph 15.2 mph 53 % 0 in
19:26 70.9 °F 53.6 °F 29.9 in WSW 13.2 mph 13.4 mph 54 % 0 in
19:31 70.7 °F 53.6 °F 29.9 in WSW 11.2 mph 15.4 mph 54 % 0 in
19:36 70.7 °F 53.6 °F 29.9 in West 9.4 mph 15.4 mph 55 % 0 in
19:41 71.6 °F 55.4 °F 29.9 in SW 12.3 mph 14.5 mph 55 % 0 in
19:47 71.2 °F 53.6 °F 29.9 in West 15.4 mph 15.4 mph 53 % 0 in
19:52 70.9 °F 53.6 °F 29.9 in WSW 10.3 mph 16.8 mph 53 % 0 in
19:57 70.9 °F 53.6 °F 29.9 in West 8.5 mph 17.9 mph 54 % 0 in
20:02 70.5 °F 53.6 °F 29.9 in WSW 8.9 mph 17.9 mph 53 % 0 in
20:07 69.8 °F 53.6 °F 29.9 in West 10.3 mph 17.2 mph 54 % 0 in
20:12 69.6 °F 53.6 °F 29.9 in SSW 9.8 mph 17.4 mph 56 % 0 in
20:17 69.1 °F 53.6 °F 29.9 in West 7.2 mph 17.4 mph 57 % 0 in
20:22 68.5 °F 53.6 °F 29.9 in WSW 7.8 mph 13.2 mph 59 % 0 in
20:27 68.4 °F 55.4 °F 29.9 in West 9.8 mph 11 mph 60 % 0 in
20:32 68 °F 55.4 °F 29.9 in West 5.8 mph 10.7 mph 62 % 0 in
20:37 67.8 °F 55.4 °F 29.9 in West 10.3 mph 10.7 mph 63 % 0 in
20:42 67.6 °F 55.4 °F 29.9 in WSW 6.5 mph 10.7 mph 64 % 0 in
20:47 67.5 °F 55.4 °F 29.9 in WSW 8.5 mph 9.8 mph 65 % 0 in
20:52 67.3 °F 55.4 °F 29.9 in WSW 8.7 mph 12.8 mph 65 % 0 in
20:57 67.1 °F 55.4 °F 29.9 in WSW 8.5 mph 12.8 mph 65 % 0 in
21:02 66.9 °F 55.4 °F 29.9 in West 8.1 mph 13 mph 64 % 0 in
21:07 66.7 °F 55.4 °F 29.9 in SSW 7.8 mph 13 mph 64 % 0 in
21:12 66.6 °F 55.4 °F 29.9 in SSW 7.8 mph 11.4 mph 65 % 0 in
21:17 66.4 °F 55.4 °F 29.9 in WSW 7.8 mph 10.3 mph 66 % 0 in
21:22 66.4 °F 55.4 °F 29.9 in West 8.5 mph 10.7 mph 67 % 0 in
21:27 66.2 °F 55.4 °F 29.9 in West 6.3 mph 10.7 mph 67 % 0 in
21:32 66 °F 55.4 °F 29.9 in WSW 8.7 mph 8.9 mph 68 % 0 in
21:37 65.7 °F 55.4 °F 29.9 in WSW 4 mph 8.9 mph 68 % 0 in
21:42 65.3 °F 55.4 °F 29.9 in WSW 5.4 mph 7.8 mph 69 % 0 in
21:47 64.9 °F 55.4 °F 29.9 in WSW 5.6 mph 7.8 mph 69 % 0 in
21:52 64.2 °F 55.4 °F 29.9 in Calm   6.3 mph 70 % 0 in
21:57 63.9 °F 53.6 °F 29.9 in Calm   5.6 mph 70 % 0 in
22:02 63.1 °F 53.6 °F 29.9 in Calm   2.9 mph 71 % 0 in
22:07 63 °F 55.4 °F 29.9 in WSW 2.5 mph 4 mph 72 % 0 in
22:12 62.6 °F 55.4 °F 29.9 in Calm   4.7 mph 75 % 0 in
22:17 62.4 °F 55.4 °F 29.9 in Calm   4.7 mph 75 % 0 in
22:22 62.2 °F 55.4 °F 29.9 in Calm   4.3 mph 77 % 0 in
22:27 62.1 °F 55.4 °F 29.9 in West 4.3 mph 4.7 mph 78 % 0 in
22:32 61.7 °F 55.4 °F 29.9 in WSW 3.4 mph 4.9 mph 79 % 0 in
22:37 61.9 °F 55.4 °F 29.9 in SSW 5.4 mph 8.1 mph 81 % 0 in
22:43 62.2 °F 55.4 °F 29.9 in WSW 3.6 mph 8.1 mph 81 % 0 in
22:48 62.2 °F 55.4 °F 29.9 in WSW 2.9 mph 7.2 mph 81 % 0 in
22:53 62.6 °F 57.2 °F 29.9 in West 4.3 mph 8.1 mph 81 % 0 in
22:58 63 °F 57.2 °F 29.9 in WNW 3.8 mph 8.1 mph 81 % 0 in
23:03 63.1 °F 57.2 °F 29.9 in West 5.6 mph 6.7 mph 81 % 0 in
23:08 63.1 °F 57.2 °F 29.9 in Calm   5.8 mph 80 % 0 in
23:13 62.8 °F 57.2 °F 29.9 in Calm   5.8 mph 80 % 0 in
23:18 62.4 °F 57.2 °F 29.9 in Calm   4 mph 80 % 0 in
23:23 62.2 °F 55.4 °F 29.9 in Calm   4 mph 80 % 0 in
23:28 62.2 °F 55.4 °F 29.9 in West 4.9 mph 6 mph 80 % 0 in
23:33 62.2 °F 55.4 °F 29.9 in Calm   6 mph 80 % 0 in
23:38 62.4 °F 57.2 °F 29.9 in SW 1.1 mph 7.6 mph 82 % 0 in
23:43 62.6 °F 57.2 °F 30 in West 3.8 mph 7.6 mph 81 % 0 in
23:48 62.8 °F 57.2 °F 30 in West 3.8 mph 7.8 mph 81 % 0 in
23:53 62.8 °F 57.2 °F 30 in WNW 5.6 mph 7.8 mph 81 % 0 in
23:58 62.6 °F 57.2 °F 29.9 in Calm   6.7 mph 82 % 0 in
Le Gheer Warneton
Courtoisie de Weather Underground - 2.25 mb

Mise a jour : 17-12-17 09:14:12
Généré par Cumulus 1.9.4 (1099)